TimePDT,TemperatureF,Dew PointF,Humidity,Sea Level PressureIn,VisibilityMPH,Wind Direction,Wind SpeedMPH,Gust SpeedMPH,PrecipitationIn,Events,Conditions,WindDirDegrees,DateUTC
12:12 AM,53.6,48.2,82,29.89,10.0,WNW,33.4,44.9,N/A,,Overcast,290,2013-04-08 07:12:00
12:19 AM,51.8,48.2,88,29.89,10.0,WNW,34.5,43.7,N/A,,Overcast,290,2013-04-08 07:19:00
12:56 AM,50.0,41.0,71,29.88,10.0,West,29.9,56.4,0.00,,Overcast,280,2013-04-08 07:56:00
1:41 AM,51.8,39.2,62,29.89,10.0,West,33.4,42.6,N/A,,Overcast,280,2013-04-08 08:41:00
1:52 AM,51.8,39.2,62,29.88,10.0,West,29.9,49.5,N/A,,Overcast,280,2013-04-08 08:52:00
1:56 AM,51.1,39.9,66,29.88,10.0,West,35.7,49.5,N/A,,Overcast,280,2013-04-08 08:56:00
2:56 AM,50.0,39.0,66,29.83,10.0,West,42.6,55.2,N/A,,Overcast,280,2013-04-08 09:56:00
3:56 AM,50.0,39.0,66,29.85,10.0,WNW,28.8,44.9,N/A,,Overcast,300,2013-04-08 10:56:00
4:56 AM,50.0,39.0,66,29.88,10.0,NW,19.6,29.9,N/A,,Mostly Cloudy,310,2013-04-08 11:56:00
5:56 AM,48.9,36.0,61,29.88,10.0,WNW,23.0,31.1,N/A,,Scattered Clouds,290,2013-04-08 12:56:00
6:56 AM,48.9,35.1,59,29.91,10.0,WNW,17.3,28.8,N/A,,Partly Cloudy,300,2013-04-08 13:56:00
7:56 AM,50.0,35.1,57,29.95,10.0,WNW,21.9,27.6,N/A,,Partly Cloudy,300,2013-04-08 14:56:00
8:56 AM,52.0,34.0,50,29.95,10.0,WNW,20.7,31.1,N/A,,Partly Cloudy,300,2013-04-08 15:56:00
9:56 AM,55.0,34.0,45,29.97,10.0,WNW,24.2,28.8,N/A,,Partly Cloudy,290,2013-04-08 16:56:00
10:56 AM,57.9,34.0,41,29.97,10.0,WNW,19.6,28.8,N/A,,Partly Cloudy,290,2013-04-08 17:56:00
11:56 AM,59.0,36.0,42,29.98,10.0,West,25.3,-,N/A,,Partly Cloudy,280,2013-04-08 18:56:00
12:56 PM,60.1,37.0,42,29.97,10.0,WNW,25.3,-,N/A,,Partly Cloudy,300,2013-04-08 19:56:00
1:56 PM,62.1,37.9,41,29.96,10.0,West,24.2,29.9,N/A,,Partly Cloudy,280,2013-04-08 20:56:00
2:56 PM,60.1,39.9,47,29.96,10.0,WNW,27.6,34.5,N/A,,Partly Cloudy,290,2013-04-08 21:56:00
3:56 PM,61.0,41.0,48,29.95,10.0,WNW,32.2,39.1,N/A,,Partly Cloudy,290,2013-04-08 22:56:00
4:56 PM,59.0,41.0,51,29.95,10.0,West,33.4,42.6,N/A,,Partly Cloudy,280,2013-04-08 23:56:00
5:56 PM,57.0,41.0,55,29.95,10.0,West,33.4,40.3,N/A,,Partly Cloudy,280,2013-04-09 00:56:00
6:56 PM,54.0,41.0,62,29.98,10.0,West,29.9,41.4,N/A,,Partly Cloudy,270,2013-04-09 01:56:00
7:56 PM,53.1,42.1,66,29.98,10.0,West,19.6,29.9,N/A,,Partly Cloudy,280,2013-04-09 02:56:00
8:56 PM,52.0,42.1,69,30.01,10.0,West,20.7,-,N/A,,Clear,270,2013-04-09 03:56:00
9:56 PM,52.0,42.1,69,30.03,10.0,West,16.1,-,N/A,,Clear,270,2013-04-09 04:56:00
10:56 PM,51.1,42.1,71,30.02,10.0,West,19.6,24.2,N/A,,Clear,280,2013-04-09 05:56:00
11:56 PM,51.1,43.0,74,30.04,10.0,WNW,9.2,-,N/A,,Clear,300,2013-04-09 06:56:00